Home > Time Zones > World Clock > Weather > Italy > Genoa > Past weeks

Flag for Italy Weather past 2 weeks in Genoa, Italy

Now
59 °F

Partly cloudy.


Feels Like: 58 °F
Forecast: 57 / 71 °F
Wind: 7 mph from South

Location: Genova / Sestri

Current Time: Apr 27, 2015 at 11:19:59 PM

Latest Report: Apr 27, 2015 at 10:50 PM


Visibility: N/A

Pressure: 29.62 "Hg

Humidity: 88%

Dew point: 55 °F

Location of GenoaLocation

Historic Weather in Genoa — Graph

°F

Genoa temperature yesterday

Maximum temperature yesterday: 64 °F (at 12:50 PM)
Minimum temperature yesterday: 59 °F (at 12:20 AM)
Average temperature yesterday: 61 °F

Past Weeks' High & Low Weather Summary

 TemperatureHumidityPressure
High68 °F (Apr 20, 12:20 PM)94% (Apr 15, 1:50 AM)30.39 "Hg (Apr 15, 1:50 AM)
Low52 °F (Apr 14, 6:50 AM)28% (Apr 20, 12:20 PM)29.56 "Hg (Apr 27, 5:20 PM)
Average60 °F77%30.08 "Hg
* Reported Apr 12 9:20 PM — Apr 27 9:50 PM, Genoa, Weather by CustomWeather, © 2015

Note: Actual official high and low records may vary slightly from our data, if they occured in-between our weather recording intervals... More about our weather records

Advertising

Genoa weather history for previous 24 hours

 ConditionsComfort  
Time TempWeatherWind HumidityBarometerVisibility
9:50 PM
Mon, Apr 27
59 °FPartly cloudy.8 mph88%29.62 "HgN/A
9:20 PM59 °FBroken clouds.8 mph88%29.62 "HgN/A
8:50 PM59 °FBroken clouds.9 mph88%29.59 "HgN/A
8:20 PM59 °FBroken clouds.13 mph88%29.59 "HgN/A
7:50 PM61 °FBroken clouds.2 mph77%29.59 "HgN/A
7:20 PM61 °FBroken clouds.2 mph72%29.59 "HgN/A
6:50 PM61 °FBroken clouds.8 mph72%29.59 "HgN/A
6:20 PM61 °FBroken clouds.5 mph72%29.59 "HgN/A
5:50 PM59 °FLight rain. Broken clouds.9 mph77%29.59 "HgN/A
5:20 PM59 °FLight rain. Broken clouds.6 mph77%29.56 "HgN/A
4:50 PM57 °FLight rain. Broken clouds.8 mph82%29.59 "HgN/A
4:20 PM57 °FLight rain. Broken clouds.13 mph82%29.62 "HgN/A
3:50 PM55 °FLight rain. Broken clouds.7 mph94%29.62 "HgN/A
3:20 PM55 °FThunderstorms. Broken clouds.5 mph88%29.65 "Hg1 mi
2:50 PM55 °FRain. Broken clouds.10 mph94%29.65 "Hg1 mi
2:20 PM61 °FLight rain. Broken clouds.15 mph94%29.62 "Hg2 mi
1:50 PM61 °FLight rain. Broken clouds.17 mph94%29.62 "Hg2 mi
1:20 PM61 °FLight rain. Broken clouds.17 mph94%29.62 "Hg3 mi
12:50 PM61 °FLight rain. Broken clouds.16 mph94%29.65 "Hg3 mi
12:20 PM61 °FBroken clouds.13 mph94%29.65 "Hg4 mi
11:50 AM61 °FBroken clouds.15 mph94%29.65 "Hg4 mi
11:20 AM61 °FBroken clouds.17 mph94%29.65 "Hg4 mi
10:50 AM61 °FBroken clouds.17 mph94%29.65 "Hg4 mi
10:20 AM61 °FBroken clouds.18 mph88%29.65 "Hg5 mi
9:50 AM61 °FLight rain. Broken clouds.20 mph88%29.68 "Hg5 mi
9:20 AM61 °FLight rain. Broken clouds.20 mph88%29.68 "Hg4 mi
8:50 AM59 °FLight rain. Broken clouds.18 mph94%29.68 "Hg4 mi
8:20 AM59 °FRain. Broken clouds.21 mph94%29.68 "Hg2 mi
7:50 AM59 °FRain. Broken clouds.21 mph94%29.68 "Hg3 mi
7:20 AM61 °FLight rain. Partly cloudy.20 mph94%29.68 "Hg4 mi
6:50 AM61 °FLight rain. Partly cloudy.17 mph88%29.71 "Hg4 mi
6:20 AM61 °FLight rain. Partly cloudy.22 mph88%29.71 "Hg4 mi
5:50 AM61 °FLight rain. Partly cloudy.20 mph88%29.71 "Hg4 mi
5:20 AM61 °FRain. Partly cloudy.21 mph88%29.71 "Hg4 mi
4:50 AM59 °FRain. Partly cloudy.18 mph94%29.74 "Hg4 mi
4:20 AM61 °FPartly cloudy.17 mph88%29.74 "Hg5 mi
3:50 AM59 °FPartly cloudy.16 mph94%29.74 "Hg5 mi
3:20 AM61 °FPartly cloudy.18 mph88%29.77 "Hg5 mi
2:50 AM61 °FPartly cloudy.18 mph88%29.77 "Hg5 mi
2:20 AM61 °FPartly cloudy.18 mph88%29.80 "Hg5 mi
1:50 AM61 °FPartly cloudy.17 mph94%29.80 "Hg5 mi
1:20 AM61 °FPartly cloudy.14 mph94%29.80 "Hg5 mi
12:50 AM61 °FPartly cloudy.14 mph94%29.83 "Hg5 mi
12:20 AM61 °FPartly cloudy.13 mph94%29.83 "HgN/A
11:50 PM
Sun, Apr 26
61 °FLight rain. Partly cloudy.14 mph94%29.86 "HgN/A
11:20 PM61 °FLight rain. Partly cloudy.14 mph88%29.86 "HgN/A
Weather by CustomWeather, © 2015

See weather overviewHow to use our weather pages